Weather Roundup
Issued by NWS

Home | Current Version | Previous Version | Graphics & Text | Print | Product List | Glossary Off
Versions: 1 2 3 4 5 6 7 8 9 10 11 12 13 14 15 16 17 18 19 20 21 22 23 24 25 26 27 28 29 30 31 32 33 34 35 36 37 38 39 40 41 42 43 44 45 46 47 48 49 50

069
NZUS93 KARX 220110
HRRWXR

CURRENT HOURLY OBSERVATIONS ACROSS
MUCH OF THE UPPER MISSISSIPPI VALLEY
NATIONAL WEATHER SERVICE LA CROSSE WI
800 PM CDT SUN MAY 21 2017


...SOUTHEAST MINNESOTA...


CITY           SKY/WX    TMP DP  RH WIND       PRES   REMARKS
ROCHESTER      CLOUDY    46  41  82 W16G24    29.92S
ROCHESTER/MAYO CLOUDY    46  40  79 W14G20    29.92S
WINONA         CLOUDY    48  41  76 W8        29.91S
AUSTIN         MOCLDY    46  39  76 W18G24    29.95R
ALBERT LEA     CLOUDY    48  43  81 W8        29.96R
DODGE CENTER   CLOUDY    45  39  81 W12       29.93R
PRESTON        CLOUDY    46  39  78 W16       29.93S
OWATONNA       CLOUDY    46  39  76 W14G20    29.94R
FARIBAULT      CLOUDY    46  41  81 W12       29.93S
$$

...ELSEWHERE IN MINNESOTA...


CITY           SKY/WX    TMP DP  RH WIND       PRES   REMARKS
MINNEAPOLIS    CLOUDY    47  39  74 W14       29.90R
INTNL FALLS    LGT RAIN  47  43  86 W9        29.77S FOG
DULUTH         DRIZZLE   48  45  89 W9        29.76S FOG
RED WING       CLOUDY    48  39  71 W13G18    29.89R
REDWOOD FALLS  CLEAR     49  39  68 NW9       29.94S
MANKATO        PTCLDY    48  39  71 W13       29.95R
WORTHINGTON    CLEAR     52  43  71 NW10      29.99R
FAIRMONT       CLEAR     50  41  71 W10       29.98S
$$

...SOUTHWEST WISCONSIN...


CITY           SKY/WX    TMP DP  RH WIND       PRES   REMARKS
LA CROSSE      CLOUDY    50  42  74 W9        29.91S
PRAIRIE DU CHI CLOUDY    50  40  69 W8        29.96S
BOSCOBEL       CLOUDY    51  41  68 W7G18     29.96R
LONE ROCK      CLOUDY    50  41  71 W13G22    29.94S
PLATTEVILLE    CLOUDY    49  44  81 SW12      29.97S
FORT MC COY    CLOUDY    47  43  84 W8        29.91S
CAMP DOUGLAS   CLOUDY    48  42  79 SW12      29.89S
MAUSTON-NEW LI CLOUDY    49  42  79 W8        29.89S
VIROQUA        CLOUDY    46  42  86 MISG      29.92R
WIS DELLS      CLOUDY    47  42  82 SW10      29.91S
$$

...ELSEWHERE IN WISCONSIN...


CITY           SKY/WX    TMP DP  RH WIND       PRES   REMARKS
MILWAUKEE      CLOUDY    53  41  63 W13G22    29.94S
MADISON        CLOUDY    49  41  74 VRB7      29.92F
GREEN BAY      CLOUDY    52  46  80 SW12G20   29.85S
EAU CLAIRE     CLOUDY    47  45  93 W12       29.85R
BLACK RVR FLS  CLOUDY    48  42  81 W7        29.88S
MEDFORD        RAIN      45  44  95 SW12      29.81S
WAUSAU         LGT RAIN  46  45  96 SW9       29.82S FOG
WIS RAPIDS     CLOUDY    49  41  74 W14G21    29.87S
MARSHFIELD     LGT RAIN  46  42  86 SW15      29.84S
RICE LAKE      DRIZZLE   47  45  92 W14       29.84R
$$

...NORTHEAST IOWA...


CITY           SKY/WX    TMP DP  RH WIND       PRES   REMARKS
WATERLOO       CLOUDY    50  41  71 W14G20    30.00R
DUBUQUE        CLOUDY    47  42  83 W20       29.98S
DECORAH        CLOUDY    46  43  87 W10G16    29.94S
MASON CITY     CLOUDY    48  40  73 W12       29.99S
CHARLES CITY   CLOUDY    48  43  81 W14G21    29.98S
OELWEIN        CLOUDY    48  45  87 W14       29.99R
$$

...ELSEWHERE IN IOWA...


CITY           SKY/WX    TMP DP  RH WIND       PRES   REMARKS
DES MOINES     PTCLDY    57  43  59 W9        30.06R
IOWA CITY      CLOUDY    54  42  64 W12       30.05R
FORT DODGE     PTCLDY    54  43  66 W8        30.03S
MARSHALLTOWN   CLOUDY    51  44  77 W10       30.02S
CEDAR RAPIDS   CLOUDY    50  44  80 W13       30.02R
$$

...NORTHERN ILLINOIS...


CITY           SKY/WX    TMP DP  RH WIND       PRES   REMARKS
CHICAGO-OHARE  CLOUDY    52  40  63 W14       29.99S
CHICAGO-MIDWAY CLOUDY    53  42  66 W16G24    30.00S
MOLINE         CLOUDY    53  39  59 W15       30.04S
ROCKFORD       CLOUDY    50  41  71 W8        30.01S
PEORIA         CLOUDY    54  43  66 W7        30.06S
$$

NOTE: "FAIR" INDICATES FEW OR NO CLOUDS BELOW 12,000 FEET WITH NO
SIGNIFICANT WEATHER AND/OR OBSTRUCTIONS TO VISIBILITY. WIND
SPEEDS ARE IN MILES-PER-HOUR.




USA.gov is the U.S. government's official web portal to all federal, state and local government web resources and services.